Location: Cassano d�Adda
(45.5333°N, 9.5167°E)
Time: 18:09:11
(UTC+00:00)

Cosmos 1733 Rocket - Pass Details

Date: 08 December 2019
Orbit: 604 x 627 km, 82.5° (Epoch: 20 January)

Event Time Altitude Azimuth Distance (km) Brightness Sun altitude
Rises 17:12:47 0° 345° (NNW) 2,886 6.5 -15.8°
Reaches altitude 10° 17:15:03 10° 340° (NNW) 1,980 5.7 -16.2°
Maximum altitude 17:19:16 48° 267° (W) 812 4.1 -16.9°
Drops below altitude 10° 17:23:28 10° 193° (SSW) 1,978 6.0 -17.6°
Sets 17:25:45 0° 188° (S) 2,883 6.8 -18.0°
